Terminal Aerodrome Forecast
Issued by NWS Topeka, KS

Home | Current Version | Previous Version | Text Only | Print | Product List | Glossary Off
Versions: 1 2 3 4 5 6 7 8 9 10 11 12 13 14 15 16

000
FTUS43 KTOP 031300 AAA
TAFTOP
TAF AMD
KTOP 031310Z 0313/0412 21012G22KT P6SM OVC008
     FM031500 23014G22KT P6SM BKN013
     FM031700 25015G22KT P6SM SCT025
     FM032100 33015G22KT P6SM BKN030
     FM040200 36013KT P6SM BKN040=

USA.gov is the U.S. government's official web portal to all federal, state and local government web resources and services.